TimeEST,TemperatureF,Dew PointF,Humidity,Sea Level PressureIn,VisibilityMPH,Wind Direction,Wind SpeedMPH,Gust SpeedMPH,PrecipitationIn,Events,Conditions,WindDirDegrees,DateUTC
12:53 AM,59.0,45.0,60,30.22,10.0,NE,12.7,-,N/A,,Clear,40,2013-01-23 05:53:00
1:53 AM,59.0,46.0,62,30.22,10.0,NE,13.8,19.6,N/A,,Clear,50,2013-01-23 06:53:00
2:53 AM,57.9,46.0,65,30.23,10.0,NE,11.5,-,N/A,,Mostly Cloudy,50,2013-01-23 07:53:00
3:53 AM,57.9,46.0,65,30.22,10.0,NE,10.4,-,N/A,,Scattered Clouds,40,2013-01-23 08:53:00
4:53 AM,57.0,46.0,67,30.22,10.0,NNE,8.1,-,N/A,,Clear,30,2013-01-23 09:53:00
5:53 AM,57.0,46.0,67,30.24,10.0,NE,9.2,-,N/A,,Clear,40,2013-01-23 10:53:00
6:53 AM,55.9,44.1,64,30.26,10.0,NNE,9.2,-,N/A,,Mostly Cloudy,30,2013-01-23 11:53:00
7:53 AM,55.9,42.1,60,30.27,10.0,NNE,11.5,-,N/A,,Overcast,30,2013-01-23 12:53:00
8:53 AM,57.9,42.1,56,30.30,10.0,NE,13.8,-,N/A,,Partly Cloudy,40,2013-01-23 13:53:00
9:53 AM,59.0,43.0,55,30.31,10.0,NE,11.5,-,N/A,,Clear,40,2013-01-23 14:53:00
10:53 AM,64.0,46.0,52,30.30,10.0,NNE,13.8,-,N/A,,Clear,30,2013-01-23 15:53:00
11:53 AM,69.1,48.0,47,30.29,10.0,NNE,11.5,-,N/A,,Clear,30,2013-01-23 16:53:00
12:53 PM,71.1,50.0,47,30.27,10.0,NNE,9.2,-,N/A,,Clear,20,2013-01-23 17:53:00
1:53 PM,73.0,51.1,46,30.25,10.0,East,8.1,18.4,N/A,,Clear,90,2013-01-23 18:53:00
2:53 PM,75.0,48.9,40,30.23,10.0,NNE,8.1,-,N/A,,Clear,30,2013-01-23 19:53:00
3:53 PM,73.9,48.9,41,30.22,10.0,ENE,9.2,-,N/A,,Clear,60,2013-01-23 20:53:00
4:53 PM,73.0,48.0,41,30.24,10.0,ENE,9.2,-,N/A,,Clear,60,2013-01-23 21:53:00
5:53 PM,69.1,44.1,40,30.25,10.0,NE,5.8,-,N/A,,Clear,50,2013-01-23 22:53:00
6:53 PM,66.9,45.0,45,30.26,10.0,NE,4.6,-,N/A,,Clear,40,2013-01-23 23:53:00
7:53 PM,64.0,46.0,52,30.27,10.0,NE,5.8,-,N/A,,Clear,50,2013-01-24 00:53:00
8:53 PM,63.0,46.0,54,30.29,10.0,NNE,4.6,-,N/A,,Clear,20,2013-01-24 01:53:00
9:53 PM,61.0,45.0,56,30.30,10.0,NNE,4.6,-,N/A,,Clear,30,2013-01-24 02:53:00
10:53 PM,60.1,44.1,55,30.29,10.0,NNE,6.9,-,N/A,,Clear,30,2013-01-24 03:53:00
11:53 PM,57.0,46.9,69,30.28,10.0,ENE,4.6,-,N/A,,Clear,60,2013-01-24 04:53:00